• In Hungary
  • List of Countries
  • For 7 days
  • Water Temperature
  • Satellite Maps
  • Weather Map
  • News
  • Weather Widgets
  • user-avatar
    Login

    Hourly Weather Gutowo

    Today, 17 October, Tuesday

    Time Temperature Precipitation Wind Pressure Humidity
    00:00 +13°C° 0 mm 2 mps 750 mmHg 93%
    01:00 +13°C° 0 mm 1 mps 750 mmHg 95%
    02:00 +12°C° 0 mm 1 mps 750 mmHg 95%
    03:00 +12°C° 0 mm 1 mps 750 mmHg 95%
    04:00 +12°C° 0 mm 1 mps 750 mmHg 95%
    05:00 +12°C° 0 mm 2 mps 750 mmHg 95%
    06:00 +12°C° 0 mm 2 mps 750 mmHg 95%
    07:00 +11°C° 0 mm 3 mps 750 mmHg 94%
    08:00 +13°C° 0 mm 3 mps 750 mmHg 88%
    09:00 +14°C° 0 mm 3 mps 750 mmHg 82%
    10:00 +17°C° 0 mm 4 mps 750 mmHg 76%
    11:00 +18°C° 0 mm 4 mps 750 mmHg 73%
    12:00 +19°C° 0 mm 4 mps 750 mmHg 69%
    13:00 +20°C° 0 mm 5 mps 749 mmHg 65%
    14:00 +20°C° 0 mm 4 mps 749 mmHg 67%
    15:00 +19°C° 0 mm 4 mps 749 mmHg 68%
    16:00 +19°C° 0 mm 4 mps 748 mmHg 70%
    17:00 +18°C° 0 mm 4 mps 748 mmHg 73%
    18:00 +17°C° 0 mm 4 mps 748 mmHg 76%
    19:00 +16°C° 0 mm 3 mps 748 mmHg 78%
    20:00 +14°C° 0 mm 3 mps 748 mmHg 80%
    21:00 +14°C° 0 mm 3 mps 748 mmHg 82%
    22:00 +13°C° 0 mm 3 mps 747 mmHg 84%
    23:00 +13°C° 0 mm 3 mps 747 mmHg 86%

    Tomorrow, 18 October, Wednesday

    Time Temperature Precipitation Wind Pressure Humidity
    00:00 +13°C° 0 mm 3 mps 747 mmHg 87%
    01:00 +12°C° 0 mm 3 mps 747 mmHg 89%
    02:00 +12°C° 0 mm 3 mps 747 mmHg 90%
    03:00 +12°C° 0 mm 3 mps 746 mmHg 91%
    04:00 +12°C° 0 mm 3 mps 746 mmHg 92%
    05:00 +12°C° 0 mm 3 mps 746 mmHg 93%
    06:00 +12°C° 0 mm 3 mps 746 mmHg 93%
    07:00 +11°C° 0 mm 3 mps 746 mmHg 94%
    08:00 +13°C° 0 mm 3 mps 746 mmHg 86%
    09:00 +14°C° 0 mm 3 mps 746 mmHg 79%
    10:00 +17°C° 0 mm 3 mps 746 mmHg 71%
    11:00 +17°C° 0 mm 3 mps 746 mmHg 67%
    12:00 +18°C° 0 mm 3 mps 746 mmHg 63%
    13:00 +19°C° 0 mm 3 mps 746 mmHg 59%
    14:00 +18°C° 0 mm 2 mps 746 mmHg 62%
    15:00 +17°C° 0 mm 2 mps 746 mmHg 65%
    16:00 +16°C° 0 mm 1 mps 745 mmHg 69%
    17:00 +15°C° 0 mm 1 mps 745 mmHg 72%
    18:00 +14°C° 0 mm 1 mps 745 mmHg 75%
    19:00 +12°C° 0 mm 0 mps 746 mmHg 78%
    20:00 +12°C° 0 mm 0 mps 746 mmHg 80%
    21:00 +12°C° 0 mm 0 mps 746 mmHg 81%
    22:00 +11°C° 0 mm 0 mps 745 mmHg 82%
    23:00 +12°C° 0 mm 1 mps 745 mmHg 84%

    Day after tomorrow, 19 October, Thursday

    Time Temperature Precipitation Wind Pressure Humidity
    00:00 +12°C° 0 mm 1 mps 745 mmHg 85%
    01:00 +11°C° 0 mm 1 mps 745 mmHg 87%
    02:00 +11°C° 0 mm 1 mps 745 mmHg 88%
    03:00 +11°C° 0 mm 1 mps 745 mmHg 89%
    04:00 +9°C° 0 mm 2 mps 745 mmHg 90%
    05:00 +9°C° 0 mm 2 mps 745 mmHg 91%
    06:00 +9°C° 0 mm 2 mps 745 mmHg 91%
    07:00 +9°C° 0 mm 2 mps 745 mmHg 92%
    08:00 +10°C° 0 mm 2 mps 746 mmHg 86%
    09:00 +13°C° 0 mm 2 mps 746 mmHg 80%
    10:00 +14°C° 0 mm 2 mps 746 mmHg 73%
    11:00 +15°C° 0 mm 2 mps 746 mmHg 71%
    12:00 +16°C° 0 mm 2 mps 746 mmHg 68%
    13:00 +17°C° 0 mm 2 mps 746 mmHg 65%
    14:00 +16°C° 0 mm 2 mps 746 mmHg 69%
    15:00 +15°C° 0 mm 2 mps 746 mmHg 72%
    16:00 +15°C° 0 mm 2 mps 746 mmHg 76%
    17:00 +14°C° 0 mm 2 mps 746 mmHg 80%
    18:00 +12°C° 0 mm 3 mps 747 mmHg 84%
    19:00 +11°C° 0 mm 3 mps 747 mmHg 89%
    20:00 +10°C° 0 mm 2 mps 747 mmHg 90%
    21:00 +10°C° 0 mm 2 mps 747 mmHg 91%
    22:00 +10°C° 0 mm 2 mps 748 mmHg 93%
    23:00 +9°C° 0 mm 2 mps 748 mmHg 93%

    20 October, Friday

    Time Temperature Precipitation Wind Pressure Humidity
    00:00 +9°C° 0 mm 2 mps 748 mmHg 94%
    01:00 +9°C° 0 mm 2 mps 748 mmHg 94%
    02:00 +9°C° 0 mm 2 mps 748 mmHg 94%
    03:00 +9°C° 0 mm 2 mps 748 mmHg 94%
    04:00 +8°C° 0 mm 2 mps 748 mmHg 95%
    05:00 +8°C° 0 mm 2 mps 748 mmHg 94%
    06:00 +8°C° 0 mm 3 mps 748 mmHg 94%
    07:00 +8°C° 0 mm 3 mps 748 mmHg 94%
    08:00 +10°C° 0 mm 3 mps 748 mmHg 90%
    09:00 +11°C° 0 mm 3 mps 749 mmHg 85%
    10:00 +12°C° 0 mm 3 mps 749 mmHg 80%
    11:00 +13°C° 0 mm 3 mps 748 mmHg 78%
    12:00 +14°C° 0 mm 3 mps 748 mmHg 75%
    13:00 +16°C° 0 mm 3 mps 748 mmHg 73%
    14:00 +16°C° 0 mm 3 mps 748 mmHg 76%
    15:00 +15°C° 0 mm 2 mps 748 mmHg 79%
    16:00 +15°C° 0 mm 2 mps 748 mmHg 81%
    17:00 +15°C° 0.1 mm 2 mps 748 mmHg 84%
    18:00 +13°C° 0.1 mm 3 mps 748 mmHg 86%
    19:00 +13°C° 0.1 mm 3 mps 747 mmHg 88%
    20:00 +13°C° 0.1 mm 3 mps 747 mmHg 88%
    21:00 +13°C° 0.1 mm 4 mps 747 mmHg 87%
    22:00 +13°C° 0.1 mm 4 mps 747 mmHg 87%
    23:00 +13°C° 0.1 mm 4 mps 746 mmHg 86%

    21 October, Saturday

    Time Temperature Precipitation Wind Pressure Humidity
    00:00 +13°C° 0.1 mm 4 mps 746 mmHg 85%
    01:00 +13°C° 0.1 mm 4 mps 746 mmHg 84%
    02:00 +13°C° 0 mm 4 mps 746 mmHg 83%
    03:00 +12°C° 0 mm 3 mps 745 mmHg 83%
    04:00 +12°C° 0 mm 3 mps 745 mmHg 82%
    05:00 +12°C° 0 mm 3 mps 745 mmHg 84%
    06:00 +12°C° 0 mm 3 mps 745 mmHg 85%
    07:00 +11°C° 0 mm 3 mps 744 mmHg 86%
    08:00 +13°C° 0.2 mm 2 mps 745 mmHg 86%
    09:00 +13°C° 0.2 mm 2 mps 745 mmHg 85%
    10:00 +14°C° 0.2 mm 2 mps 745 mmHg 85%
    11:00 +13°C° 0.4 mm 3 mps 745 mmHg 82%
    12:00 +14°C° 0.4 mm 3 mps 744 mmHg 78%
    13:00 +16°C° 0.4 mm 3 mps 744 mmHg 75%
    14:00 +14°C° 0.1 mm 3 mps 744 mmHg 77%
    15:00 +15°C° 0.1 mm 2 mps 744 mmHg 79%
    16:00 +14°C° 0.1 mm 2 mps 744 mmHg 81%
    17:00 +13°C° 0 mm 2 mps 745 mmHg 84%
    18:00 +12°C° 0 mm 1 mps 745 mmHg 87%
    19:00 +11°C° 0 mm 1 mps 745 mmHg 90%
    20:00 +11°C° 0 mm 1 mps 745 mmHg 90%
    21:00 +11°C° 0 mm 1 mps 745 mmHg 91%
    22:00 +10°C° 0 mm 1 mps 746 mmHg 92%
    23:00 +9°C° 0 mm 2 mps 746 mmHg 92%

    22 October, Sunday

    Time Temperature Precipitation Wind Pressure Humidity
    00:00 +9°C° 0 mm 2 mps 746 mmHg 92%
    01:00 +9°C° 0 mm 2 mps 746 mmHg 93%
    02:00 +9°C° 0.2 mm 2 mps 746 mmHg 93%
    03:00 +9°C° 0.2 mm 3 mps 746 mmHg 93%
    04:00 +9°C° 0.2 mm 3 mps 746 mmHg 93%
    05:00 +9°C° 0.3 mm 3 mps 746 mmHg 92%
    06:00 +8°C° 0.3 mm 4 mps 746 mmHg 92%
    07:00 +8°C° 0.3 mm 4 mps 745 mmHg 92%
    08:00 +8°C° 0.9 mm 4 mps 745 mmHg 92%
    09:00 +8°C° 0.9 mm 4 mps 746 mmHg 92%
    10:00 +8°C° 0.9 mm 4 mps 746 mmHg 91%
    11:00 +8°C° 1.2 mm 4 mps 745 mmHg 91%
    12:00 +10°C° 1.2 mm 3 mps 745 mmHg 92%
    13:00 +10°C° 1.2 mm 3 mps 745 mmHg 92%
    14:00 +10°C° 0.7 mm 2 mps 745 mmHg 92%
    15:00 +10°C° 0.7 mm 2 mps 745 mmHg 93%
    16:00 +10°C° 0.7 mm 2 mps 745 mmHg 93%
    17:00 +10°C° 1.2 mm 2 mps 745 mmHg 94%
    18:00 +10°C° 1.2 mm 2 mps 745 mmHg 95%
    19:00 +10°C° 1.2 mm 2 mps 745 mmHg 95%
    20:00 +9°C° 0.4 mm 2 mps 745 mmHg 95%
    21:00 +9°C° 0.4 mm 2 mps 745 mmHg 96%
    22:00 +9°C° 0.4 mm 2 mps 745 mmHg 96%
    23:00 +9°C° 0.1 mm 2 mps 745 mmHg 96%
    Show more